Location: Cutler
(25.6150°N, 80.3110°W)
Time: 14:44:50
(UTC-04:00)

Cosmos 2360 Rocket - Visible Passes

Search period start: 06 May 2016 00:00
Search period end: 16 May 2016 00:00
Orbit: 835 x 844 km, 71.0° (Epoch: 06 May)

Date Brightness Start Highest point End Pass type
(mag) Time Alt. Az. Time Alt. Az. Time Alt. Az.
06 May 3.6 22:31:15 27° NNE 22:31:15 27° NNE 22:33:44 10° NNE visible
07 May 5.0 00:12:55 10° NW 00:12:55 10° NW 00:13:10 10° NW visible
07 May 2.9 22:14:23 41° NE 22:14:23 41° NE 22:18:03 10° NNE visible
07 May 4.9 23:56:00 11° WNW 23:56:51 11° WNW 23:58:28 10° NW visible
08 May 2.1 21:56:57 63° E 21:56:57 63° E 22:02:22 10° NNE visible
08 May 4.9 23:38:58 10° W 23:41:08 12° WNW 23:43:19 10° NW visible
09 May 2.1 21:38:21 29° S 21:41:10 58° ESE 21:46:41 10° NNE visible
09 May 4.9 23:22:49 10° W 23:25:26 13° WNW 23:28:03 10° NNW visible
10 May 2.2 21:20:03 10° S 21:25:31 54° ESE 21:30:59 10° NNE visible
10 May 4.9 23:06:46 10° W 23:09:44 14° WNW 23:12:42 10° NNW visible
11 May 2.3 21:04:28 10° S 21:09:52 50° ESE 21:15:16 10° NNE visible
11 May 4.9 22:50:46 10° W 22:54:02 16° WNW 22:57:18 10° NNW visible
12 May 2.4 20:48:53 10° S 20:54:13 46° ESE 20:59:34 10° NNE visible
12 May 4.8 22:34:48 10° WSW 22:38:20 17° WNW 22:41:53 10° NNW visible
13 May 2.5 20:33:19 10° S 20:38:34 42° ESE 20:43:50 10° NE visible
13 May 4.8 22:18:51 10° WSW 22:22:38 18° WNW 22:26:26 10° NNW visible
14 May 2.6 20:17:45 10° S 20:22:56 39° ESE 20:28:06 10° NE visible
14 May 4.8 22:02:57 10° WSW 22:06:56 20° WNW 22:10:56 10° NNW visible
15 May 4.7 21:47:04 10° WSW 21:51:15 21° WNW 21:55:27 10° NNW visible
